This is the latest recevied weather packets stored in our database for station/object APPOWX. If no packets are shown the sender has not sent any weather packets the latest 1 day(s).
| Time | Temp. | Humidity | Pressure | Rain* | Wind** | Luminosity | Snow |
|---|---|---|---|---|---|---|---|
| 1778002852 | 25.56° C | 39% | 1016.3 hPa | 0 mm | - | - | - |
| 1778002792 | 25.56° C | 37% | 1016.2 hPa | 0 mm | - | - | - |
| 1778002672 | 26.11° C | 35% | 1016.5 hPa | 0 mm | - | - | - |
| 1778002612 | 26.11° C | 37% | 1016.3 hPa | 0 mm | - | - | - |
| 1778002552 | 26.11° C | 36% | 1016.2 hPa | 0 mm | - | - | - |
| 1778002372 | 26.11° C | 38% | 1016.4 hPa | 0 mm | - | - | - |
| 1778002311 | 25.56° C | 37% | 1016.5 hPa | 0 mm | - | - | - |
| 1778001951 | 25.56° C | 38% | 1016.5 hPa | 0 mm | - | - | - |
| 1778001770 | 25.56° C | 38% | 1016.5 hPa | 0 mm | - | - | - |
| 1778001170 | 25° C | 38% | 1016.7 hPa | 0 mm | - | - | - |
| 1778000809 | 25° C | 41% | 1016.8 hPa | 0 mm | - | - | - |
| 1778000689 | 25° C | 41% | 1016.8 hPa | 0 mm | - | - | - |
| 1778000148 | 25° C | 40% | 1016.9 hPa | 0 mm | - | - | - |
| 1777999848 | 25° C | 40% | 1016.7 hPa | 0 mm | - | - | - |
| 1777999728 | 25.56° C | 40% | 1016.7 hPa | 0 mm | - | - | - |
| 1777999188 | 24.44° C | 42% | 1017 hPa | 0 mm | - | - | - |
| 1777999128 | 24.44° C | 41% | 1016.9 hPa | 0 mm | - | - | - |
| 1777999068 | 24.44° C | 39% | 1017 hPa | 0 mm | - | - | - |
| 1777999008 | 24.44° C | 41% | 1017 hPa | 0 mm | - | - | - |
| 1777998948 | 24.44° C | 42% | 1017 hPa | 0 mm | - | - | - |
| 1777998526 | 24.44° C | 40% | 1016.9 hPa | 0 mm | - | - | - |
| 1777998466 | 23.89° C | 42% | 1017.2 hPa | 0 mm | - | - | - |
| 1777998406 | 23.89° C | 43% | 1017 hPa | 0 mm | - | - | - |
| 1777998346 | 24.44° C | 43% | 1017.2 hPa | 0 mm | - | - | - |
| 1777998286 | 24.44° C | 41% | 1017.2 hPa | 0 mm | - | - | - |
* Rain latest hour (hover to see other rain measurements)
** Current wind speed in m/s (hover to see current wind gust speed)